sat.trackr.live / text

‹ back to catalog

STARLINK-36856

NORAD 67883 · 2026-035E

PAYLOAD ACTIVE UNKNOWN

§ Identity

Operator
Country
US
Launch date
2026-02-21
Launch site
AFWTR
Launch vehicle
Mass (kg)
RCS (m²)

Purposes: comms

External: N2YO · Heavens-Above · Gunter

§ Orbital elements

Epoch: 2026-05-25T01:47:58.494048Z

Period
93.90 min
Inclination
97.2850°
Eccentricity
0.0004465
Mean motion
15.33488921 rev/d
Perigee alt
462.4 km
Apogee alt
468.5 km
Semi-major
6,843.5 km
B*
5.8187e-4
RAAN
78.5908°
Arg perigee
99.8716°
Mean anomaly
260.3031°
Rev number
1,569

§ Raw data

STARLINK-368561 67883U 26035E   26145.07498257  .00018787  00000+0  58187-3 0  99902 67883  97.2850  78.5908 0004465  99.8716 260.3031 15.33488921 15691

JSON: /api/v1/satellites/67883 · /tle

For live sub-satellite position, see the globe view (requires WebGL).

§ Visibility from observer

Set your observer location to see the next 7 days of passes ≥ 10°. The values pass through the URL so the page stays shareable.

No JS? Fill the form by hand. The geolocation button needs JavaScript.